This is the latest recevied weather packets stored in our database for station/object SP1BMW-13. If no packets are shown the sender has not sent any weather packets the latest 10 day(s).
| Time | Temp. | Humidity | Pressure | Rain* | Wind** | Luminosity | Snow |
|---|---|---|---|---|---|---|---|
| 1787380021 | 15.56° C | 91% | 1007.3 hPa | 0 mm | 0.89 m/s, 326° | 95 W/m² | - |
| 1787379961 | 15.56° C | 91% | 1007 hPa | 0 mm | 1.34 m/s, 326° | 90 W/m² | - |
| 1787379901 | 15.56° C | 91% | 1007.1 hPa | 0 mm | 0.45 m/s, 212° | 87 W/m² | - |
| 1787379841 | 15.56° C | 91% | 1007.2 hPa | 0 mm | 0.45 m/s, 251° | 84 W/m² | - |
| 1787379781 | 15.56° C | 91% | 1006.9 hPa | 0 mm | 0.89 m/s, 240° | 81 W/m² | - |
| 1787379721 | 15.56° C | 91% | 1007.2 hPa | 0 mm | 0.89 m/s, 239° | 80 W/m² | - |
| 1787379661 | 15.56° C | 91% | 1007.1 hPa | 0 mm | 0 m/s | 79 W/m² | - |
| 1787379601 | 15.56° C | 92% | 1007.1 hPa | 0 mm | 0.45 m/s, 283° | 78 W/m² | - |
| 1787379541 | 15.56° C | 92% | 1007.2 hPa | 0 mm | 0.45 m/s, 277° | 77 W/m² | - |
| 1787379481 | 15.56° C | 92% | 1007.1 hPa | 0 mm | 0 m/s | 76 W/m² | - |
| 1787379421 | 15.56° C | 92% | 1007.1 hPa | 0 mm | 0.45 m/s, 284° | 75 W/m² | - |
| 1787379361 | 15.56° C | 92% | 1007 hPa | 0 mm | 0.45 m/s, 227° | 74 W/m² | - |
| 1787379301 | 15.56° C | 93% | 1007 hPa | 0 mm | 0.45 m/s, 270° | 73 W/m² | - |
| 1787379241 | 15.56° C | 93% | 1007 hPa | 0 mm | 0.45 m/s, 177° | 72 W/m² | - |
| 1787379181 | 15.56° C | 93% | 1007 hPa | 0 mm | 0.45 m/s, 66° | 71 W/m² | - |
| 1787379121 | 15.56° C | 93% | 1007 hPa | 0 mm | 0.45 m/s, 268° | 69 W/m² | - |
| 1787379061 | 15.56° C | 93% | 1007.1 hPa | 0 mm | 0.89 m/s, 291° | 66 W/m² | - |
| 1787379001 | 15.56° C | 94% | 1006.9 hPa | 0 mm | 0.89 m/s, 241° | 61 W/m² | - |
| 1787378941 | 15.56° C | 94% | 1007.1 hPa | 0 mm | 0.45 m/s, 292° | 58 W/m² | - |
| 1787378881 | 15.56° C | 94% | 1007.2 hPa | 0 mm | 0.45 m/s, 307° | 55 W/m² | - |
| 1787378821 | 15.56° C | 94% | 1007 hPa | 0 mm | 0.89 m/s, 277° | 53 W/m² | - |
| 1787378761 | 15.56° C | 95% | 1006.9 hPa | 0 mm | 0.89 m/s, 269° | 53 W/m² | - |
| 1787378701 | 15.56° C | 95% | 1006.9 hPa | 0 mm | 0.45 m/s, 265° | 54 W/m² | - |
| 1787378640 | 15° C | 95% | 1006.9 hPa | 0 mm | 0.89 m/s, 243° | 55 W/m² | - |
| 1787378580 | 15° C | 96% | 1006.9 hPa | 0 mm | 0 m/s | 55 W/m² | - |
* Rain latest hour (hover to see other rain measurements)
** Current wind speed in m/s (hover to see current wind gust speed)